This demonstration page uses our WeatherBlox Daily Observations layout. Learn more.

Left ArrowRight Arrow

39.92423, -83.80882

Hourly Observations for August 28, 2021

Temp ( °F °C ) Dew Point ( °F °C ) Humidity (%) Winds ( mph kmh ) Pressure ( in mb ) Visibility ( mi km ) Precip ( " mm )
12:56 am 00:56 Clear 70 21 N/A N/A SSE 5 7 30.14 1021 10 16 0.00 0.00
1:56 am 01:56 Clear 70 21 N/A N/A Calm 30.14 1021 10 16 0.00 0.00
2:56 am 02:56 Clear 70 21 N/A N/A Calm 30.13 1020 10 16 0.00 0.00
3:56 am 03:56 Clear 70 21 N/A N/A Calm 30.14 1021 9 14 0.00 0.00
4:56 am 04:56 Clear 70 21 N/A N/A SSW 3 6 30.14 1021 10 16 0.00 0.00
5:56 am 05:56 Clear 70 21 N/A N/A Calm 30.16 1021 8 13 0.00 0.00
6:56 am 06:56 Mostly Cloudy 70 21 N/A N/A Calm 30.17 1022 7 11 0.00 0.00
7:56 am 07:56 Mostly Sunny 70 21 N/A N/A Calm 30.19 1022 7 11 0.00 0.00
8:56 am 08:56 Sunny 72 22 N/A N/A SW 5 7 30.21 1023 8 13 0.00 0.00
9:56 am 09:56 Mostly Sunny 73 23 N/A N/A Calm 30.21 1023 9 14 0.00 0.00
10:56 am 10:56 Mostly Cloudy 76 24.4 76 24.4 100 100 Calm 30.21 1023 10 16 0.00 0.00
11:56 am 11:56 Partly Cloudy 79 26.1 77 25 94 94 SSW 5 7 30.21 1023 10 16 0.00 0.00
12:56 pm 12:56 Sunny 83 28.3 76 24.4 79 79 SSW 5 7 30.19 1023 10 16 0.00 0.00
1:56 pm 13:56 Mostly Sunny 85 29.4 76 24.4 75 75 SW 5 7 30.18 1022 10 16 0.00 0.00
2:56 pm 14:56 Cloudy 86 30 75 23.9 70 70 VRB 3 6 30.17 1022 10 16 0.00 0.00
3:56 pm 15:56 Partly Cloudy 86 30 74 23.3 67 67 SW 8 13 30.15 1021 10 16 0.00 0.00
4:56 pm 16:56 Mostly Sunny 88 31.1 73 22.8 61 61 SSW 6 9 30.13 1020 10 16 0.00 0.00
5:56 pm 17:56 Mostly Sunny 87 30.6 74 23.3 65 65 S 3 6 30.14 1021 10 16 0.00 0.00
6:56 pm 18:56 Partly Cloudy 82 27.8 75 23.9 79 79 Calm 30.13 1020 10 16 0.00 0.00
7:56 pm 19:56 Cloudy 82 27.8 76 24.4 82 82 Calm 30.14 1021 10 16 0.00 0.00
8:56 pm 20:56 Partly Cloudy 78 25.6 78 25.6 100 100 Calm 30.14 1021 10 16 0.00 0.00
9:56 pm 21:56 Clear 73 23 N/A N/A Calm 30.16 1021 10 16 0.00 0.00
10:56 pm 22:56 Clear 73 23 N/A N/A SSE 5 7 30.15 1021 10 16 0.00 0.00
11:56 pm 23:56 Clear 73 23 N/A N/A S 3 6 30.16 1021 10 16 0.00 0.00

Powered by AerisWeather